sat.trackr.live / text

‹ back to catalog

STARLINK-31754

NORAD 59488 · 2024-071E

PAYLOAD ACTIVE UNKNOWN

§ Identity

Operator
Country
US
Launch date
2024-04-13
Launch site
AFETR
Launch vehicle
Mass (kg)
RCS (m²)

Purposes: comms

External: N2YO · Heavens-Above · Gunter

§ Orbital elements

Epoch: 2026-05-24T18:28:29.148384Z

Period
94.27 min
Inclination
43.0017°
Eccentricity
0.0001153
Mean motion
15.27574232 rev/d
Perigee alt
482.3 km
Apogee alt
483.9 km
Semi-major
6,861.2 km
B*
8.0472e-6
RAAN
277.6533°
Arg perigee
279.9505°
Mean anomaly
80.1216°
Rev number
11,975

§ Raw data

STARLINK-317541 59488U 24071E   26144.76978181 -.00000041  00000+0  80472-5 0  99932 59488  43.0017 277.6533 0001153 279.9505  80.1216 15.27574232119750

JSON: /api/v1/satellites/59488 · /tle

For live sub-satellite position, see the globe view (requires WebGL).

§ Visibility from observer

Set your observer location to see the next 7 days of passes ≥ 10°. The values pass through the URL so the page stays shareable.

No JS? Fill the form by hand. The geolocation button needs JavaScript.